Starlink 6114

operational
NORAD ID: 56116 Int'l Des: 2023-046 Owner: SPXS Country: US Constellation: starlink
LEOCIRCULAR

Starlink 6114について

説明を読み込み中...

リアルタイム位置

3D地球を読み込み中...

次回通過

高度履歴

Altitude vs Time

uPlot chart will show altitude changes over time

軌道要素

1 56116U 23046Z 26035.17085734 .00002071 00000-0 16831-3 0 9997
2 56116 43.0055 340.7607 0001278 271.1366 88.9330 15.02548783157028
Epoch: Feb 4, 2026 • Age: 18 hours

現在のステータス

高度 562.3 km
速度 7.59 km/s
衛星直下点 40.10°N, 63.92°W
打ち上げ日 Mar 29, 2023
運用期間 2.8 years
タイプ internet

技術仕様

分類 Payload
質量 305.00 kg
乾燥質量 290.00 kg
総質量 305.00 kg
長さ 0.20 m
直径 2.80 m
スパン 9.00 m
形状 Box + pan
製造者 SPXS
バスタイプ Starlink
フェーズステータス In Orbit
所有者/国 SPXS/US

大規模コンステレーション

Loading constellations...